Station 42057 - Western Caribbean - 195 NM WSW of Negril, Jamaica Image indicating link to RSS feed of recent meteorological observations for station 42057


Conditions at 42057 as of
(1:00 am EDT)
0500 GMT on 07/19/2024:
     

Click on the graph icon in the table below to see a time series plot of the last five days of that observation.

5-day plot - Atmospheric Pressure Atmospheric Pressure (PRES):29.93 in
5-day plot - Pressure Tendency Pressure Tendency (PTDY):+0.03 in ( Rising )
5-day plot - Water Temperature Water Temperature (WTMP): 85.1 °F
Previous observations
TIME
(EDT)
5-day plot - Wind Direction
WDIR
 
5-day plot - Wind Speed
WSPD
kts
5-day plot - Wind Gust
GST
kts
5-day plot - Wave Height
WVHT
ft
5-day plot - Dominant Wave Period
DPD
sec
5-day plot - Average Wave Period
APD
sec
5-day plot - Mean Wave Direction
MWD
 
5-day plot - Atmospheric Pressure
PRES
in
5-day plot - Pressure Tendency
PTDY
in
5-day plot - Air Temperature
ATMP
°F
5-day plot - Water Temperature
WTMP
°F
5-day plot - Dew Point
DEWP
°F
5-day plot - Salinity
SAL
psu
5-day plot - Visibility
VIS
nmi
5-day plot - Tide (above MLLW)
TIDE
ft
2024-07-19 12:50 am--- 4.9 85.1 E29.93-- 85.1----
2024-07-19 12:40 am-------29.93-- 85.1----
2024-07-19 12:30 am-------29.94-- 85.1----
2024-07-19 12:20 am--- 4.9 74.9 E29.94-- 85.1----
2024-07-19 12:10 am--- 4.9-4.9 E29.94-- 85.1----
2024-07-19 12:00 am-------29.93+0.02- 85.1----
2024-07-18 11:50 pm--- 4.9 64.9 E29.93-- 85.1----
2024-07-18 11:40 pm-------29.93-- 85.1----
2024-07-18 11:30 pm-------29.93-- 85.1----
2024-07-18 11:20 pm--- 5.2 75.0 E29.93-- 85.1----
2024-07-18 11:10 pm--- 5.2-5.0 E29.93-- 85.1----
2024-07-18 11:00 pm-------29.93+0.03- 85.1----
2024-07-18 10:50 pm--- 5.2 85.0 E29.92-- 85.1----
2024-07-18 10:40 pm--- 5.2-5.0 E29.91-- 85.1----
2024-07-18 10:30 pm-------29.91-- 85.1----
2024-07-18 10:20 pm--- 4.9 75.1 E29.91-- 85.1----
2024-07-18 10:10 pm--- 4.9-5.1 E29.91-- 85.1----
2024-07-18 10:00 pm-------29.90+0.02- 85.1----
2024-07-18 09:50 pm--- 4.9 85.0ESE29.91-- 85.1----
2024-07-18 09:40 pm-------29.90-- 85.1----
2024-07-18 09:30 pm-------29.91-- 85.1----
2024-07-18 09:20 pm--- 5.2 64.7ESE29.91-- 85.1----
2024-07-18 09:10 pm--- 5.2-4.7ESE29.93-- 85.1----
2024-07-18 09:00 pm-------29.91+0.04- 85.1----
2024-07-18 08:50 pm--- 5.6 84.9ESE29.91-- 85.1----
2024-07-18 08:40 pm--- 5.6-4.9ESE29.92-- 85.1----
2024-07-18 08:30 pm-------29.92-- 85.1----
2024-07-18 08:20 pm--- 5.6 75.1ESE29.90-- 85.3----
2024-07-18 08:10 pm--- 5.6-5.1ESE29.90-- 85.3----
2024-07-18 08:00 pm-------29.89+0.03- 85.3----
2024-07-18 07:50 pm--- 5.2 85.1ESE29.89-- 85.3----
2024-07-18 07:40 pm-------29.88-- 85.3----
2024-07-18 07:10 pm--- 5.2-4.9 E29.88-- 85.3----
2024-07-18 07:00 pm-------29.88+0.00- 85.3----
2024-07-18 06:50 pm--- 5.2 75.0 E29.88-- 85.3----
2024-07-18 06:40 pm--- 5.2-5.0 E29.88-- 85.3----
2024-07-18 06:30 pm-------29.88-- 85.3----
2024-07-18 06:20 pm--- 5.2 65.0 E29.87-- 85.3----
2024-07-18 06:10 pm--- 5.2-5.0 E29.87-- 85.5----
2024-07-18 06:00 pm-------29.88-0.03- 85.5----
2024-07-18 05:50 pm--- 5.2 75.0 E29.88-- 85.5----
2024-07-18 05:40 pm--- 5.2-5.0 E29.87-- 85.5----
2024-07-18 05:30 pm-------29.87-- 85.5----
2024-07-18 05:20 pm--- 4.9 84.8ESE29.87-- 85.5----
2024-07-18 05:10 pm--- 4.9-4.8ESE29.86-- 85.5----
2024-07-18 05:00 pm-------29.86-0.06- 85.5----
2024-07-18 04:50 pm--- 4.9 74.9ESE29.87-- 85.5----
2024-07-18 04:40 pm--- 4.9-4.9ESE29.88-- 85.5----
2024-07-18 04:30 pm-------29.88-- 85.5----
2024-07-18 04:20 pm--- 4.9 74.8ESE29.88-- 85.5----
2024-07-18 04:10 pm-------29.88-- 85.5----
2024-07-18 04:00 pm--- 4.9-4.8ESE29.88-0.04- 85.5----
2024-07-18 03:50 pm--- 4.6 84.8ESE29.88-- 85.3----
2024-07-18 03:40 pm--- 4.6-4.8ESE29.88-- 85.5----
2024-07-18 03:30 pm-------29.89-- 85.3----
2024-07-18 03:20 pm--- 5.2 74.8ESE29.90-- 85.3----
2024-07-18 03:10 pm--- 5.2-4.8ESE29.90-- 85.3----
2024-07-18 03:00 pm-------29.90-0.03- 85.3----
2024-07-18 02:50 pm--- 4.6 84.9 E29.90-- 85.5----
2024-07-18 02:40 pm--- 4.6-4.9 E29.90-- 85.3----
2024-07-18 02:30 pm-------29.91-- 85.5----
2024-07-18 02:20 pm--- 4.9 85.1 E29.91-- 85.5----
2024-07-18 02:10 pm--- 4.9-5.1 E29.92-- 85.5----
2024-07-18 02:00 pm-------29.92-0.02- 85.5----
2024-07-18 01:50 pm--- 4.6 85.0 E29.92-- 85.5----
2024-07-18 01:40 pm-------29.92-- 85.5----
2024-07-18 01:30 pm-------29.92-- 85.3----
2024-07-18 01:20 pm--- 4.3 84.8 E29.92-- 85.5----
2024-07-18 01:10 pm-------29.92-- 85.3----
2024-07-18 01:00 pm--- 4.3-4.8 E29.93-0.01- 85.3----
2024-07-18 12:50 pm--- 4.3 84.8ESE29.93-- 85.5----
2024-07-18 12:40 pm--- 4.3-4.8ESE29.93-- 85.5----
2024-07-18 12:30 pm-------29.93-- 85.5----
2024-07-18 12:20 pm--- 4.3 84.7ESE29.93-- 85.5----
2024-07-18 12:10 pm--- 4.3-4.7ESE29.93-- 85.5----
2024-07-18 12:00 pm-------29.93+0.01- 85.5----
2024-07-18 11:50 am--- 3.9 84.7 E29.93-- 85.5----
2024-07-18 11:40 am-------29.93-- 85.5----
2024-07-18 11:30 am-------29.93-- 85.5----
2024-07-18 11:20 am--- 4.3 84.8 E29.94-- 85.3----
2024-07-18 11:10 am--- 4.3-4.8 E29.94-- 85.3----
2024-07-18 11:00 am-------29.93+0.02- 85.3----
2024-07-18 10:50 am--- 4.6 84.9ESE29.94-- 85.3----
2024-07-18 10:40 am--- 4.6-4.9ESE29.93-- 85.3----
2024-07-18 10:30 am-------29.94-- 85.1----
2024-07-18 10:20 am--- 4.3 84.9 E29.94-- 85.1----
2024-07-18 10:10 am--- 4.3-4.9 E29.94-- 84.9----
2024-07-18 10:00 am-------29.93+0.04- 84.9----
2024-07-18 09:50 am--- 4.3 84.9ESE29.93-- 84.9----
2024-07-18 09:40 am--- 4.3-4.9ESE29.93-- 84.9----
2024-07-18 09:30 am-------29.93-- 84.7----
2024-07-18 09:20 am--- 4.6 85.0ESE29.93-- 84.7----
2024-07-18 09:10 am--- 4.6-5.0ESE29.93-- 84.9----
2024-07-18 09:00 am-------29.93+0.04- 84.9----
2024-07-18 08:50 am--- 4.3 85.2ESE29.92-- 84.7----
2024-07-18 08:40 am-------29.92-- 84.7----
2024-07-18 08:30 am-------29.92-- 84.7----
2024-07-18 08:20 am--- 3.9 85.1 E29.92-- 84.7----
2024-07-18 08:10 am--- 3.9-5.1 E29.91-- 84.7----
2024-07-18 08:00 am-------29.91+0.02- 84.9----
2024-07-18 07:50 am--- 4.3 85.0 E29.91-- 84.9----
2024-07-18 07:40 am-------29.90-- 84.9----
2024-07-18 07:30 am-------29.90-- 84.9----
2024-07-18 07:20 am--- 4.3 85.1ESE29.90-- 84.9----
2024-07-18 07:10 am--- 4.3-5.1ESE29.90-- 84.7----
2024-07-18 07:00 am-------29.89+0.00- 84.7----
2024-07-18 06:50 am--- 3.9 85.1 E29.89-- 84.7----
2024-07-18 06:40 am--- 3.9-5.1 E29.89-- 84.7----
2024-07-18 06:30 am-------29.89-- 84.7----
2024-07-18 06:20 am--- 3.9 85.1ESE29.89-- 84.7----
2024-07-18 06:10 am--- 3.9-5.1ESE29.88-- 84.7----
2024-07-18 06:00 am-------29.88-0.02- 84.7----
2024-07-18 05:50 am--- 3.9 84.8 SE29.88-- 84.7----
2024-07-18 05:40 am--- 3.9-4.8 SE29.88-- 84.7----
2024-07-18 05:30 am-------29.88-- 84.9----
2024-07-18 05:20 am--- 3.9 84.8ESE29.88-- 84.9----
2024-07-18 05:10 am--- 3.9-4.8ESE29.88-- 84.9----
2024-07-18 05:00 am-------29.89-0.03- 85.1----
2024-07-18 04:50 am--- 3.9 84.7ESE29.88-- 85.1----
2024-07-18 04:40 am-------29.89-- 85.1----
2024-07-18 04:30 am-------29.89-- 85.1----
2024-07-18 04:20 am--- 3.6 74.6ESE29.89-- 85.1----
2024-07-18 04:10 am--- 3.6-4.6ESE29.89-- 85.3----
2024-07-18 04:00 am-------29.89-0.06- 85.3----
2024-07-18 03:50 am--- 3.6 64.7ESE29.89-- 85.3----
2024-07-18 03:40 am-------29.90-- 85.3----
2024-07-18 03:30 am-------29.90-- 85.3----
2024-07-18 03:20 am--- 3.6 84.7 E29.90-- 85.3----
2024-07-18 03:10 am--- 3.6-4.7 E29.90-- 85.3----
2024-07-18 03:00 am-------29.91-0.05- 85.3----
2024-07-18 02:50 am--- 3.9 85.0ESE29.91-- 85.3----
2024-07-18 02:40 am-------29.91-- 85.3----
2024-07-18 02:30 am-------29.91-- 85.3----
2024-07-18 02:20 am--- 3.9 84.9 E29.91-- 85.3----
2024-07-18 02:10 am--- 3.9-4.9 E29.92-- 85.3----
2024-07-18 02:00 am-------29.92-0.03- 85.1----
2024-07-18 01:50 am--- 3.9 84.9ESE29.93-- 85.1----
2024-07-18 01:40 am-------29.93-- 85.1----
2024-07-18 01:30 am-------29.93-- 85.1----
2024-07-18 01:20 am--- 3.6 84.6ESE29.94-- 85.1----
2024-07-18 01:10 am--- 3.6-4.6ESE29.94-- 85.1----
2024-07-18 01:00 am-------29.95+0.02- 85.1----
2024-07-18 12:50 am--- 3.6 84.7ESE29.95-- 85.1----

Detailed Wave Summary
for 42057 as of (12:40 am EDT)
0440 GMT on 07/19/2024:

These wave data are displayed in rounded times.

     

Click on the graph icon in the table below to see a time series plot of the last five days of that observation.

5-day plot - Significant Wave Height Significant Wave Height (WVHT): 4.9 ft
5-day plot - Wave Steepness Wave Steepness (STEEPNESS): AVERAGE
5-day plot - Average Wave Period Average Wave Period (APD): 5.1 sec
Previous observations
TIME
(EDT)
5-day plot - Wave Height
WVHT
ft
5-day plot - Swell Height
SwH
ft
5-day plot - Swell Period
SwP
sec
5-day plot - Swell Direction
SwD
 
5-day plot - Wind Wave Height
WWH
ft
5-day plot - Wind Wave Period
WWP
sec
5-day plot - Wind Wave Direction
WWD
 
5-day plot - Wave Steepness
STEEPNESS
 
5-day plot - Average Wave Period
APD
sec
2024-07-19 12:10 am 4.9------ STEEP 4.9
2024-07-18 11:40 pm 4.9------ STEEP 4.9
2024-07-18 11:10 pm 5.2------ STEEP 5.0
2024-07-18 10:40 pm 5.2------ AVERAGE 5.0
2024-07-18 10:10 pm 4.9------ STEEP 5.1
2024-07-18 09:40 pm 4.9------ AVERAGE 5.0
2024-07-18 09:10 pm 5.2------ STEEP 4.7
2024-07-18 08:40 pm 5.6------ STEEP 4.9
2024-07-18 08:10 pm 5.6------ STEEP 5.1
2024-07-18 07:40 pm 5.2------ AVERAGE 5.1
2024-07-18 07:10 pm 5.2------ STEEP 4.9
2024-07-18 06:40 pm 5.2------ STEEP 5.0
2024-07-18 06:10 pm 5.2------ STEEP 5.0
2024-07-18 05:40 pm 5.2------ STEEP 5.0
2024-07-18 05:10 pm 4.9------ AVERAGE 4.8
2024-07-18 04:40 pm 4.9------ STEEP 4.9
2024-07-18 04:10 pm 4.9------ STEEP 4.8
2024-07-18 03:40 pm 4.6------ AVERAGE 4.8
2024-07-18 03:10 pm 5.2------ STEEP 4.8
2024-07-18 02:40 pm 4.6------ AVERAGE 4.9
2024-07-18 02:10 pm 4.9------ AVERAGE 5.1
2024-07-18 01:40 pm 4.6------ AVERAGE 5.0
2024-07-18 01:10 pm 4.3------ AVERAGE 4.8
2024-07-18 12:40 pm 4.3------ AVERAGE 4.8
2024-07-18 12:10 pm 4.3------ AVERAGE 4.7
2024-07-18 11:40 am 3.9------ AVERAGE 4.7
2024-07-18 11:10 am 4.3------ AVERAGE 4.8
2024-07-18 10:40 am 4.6------ AVERAGE 4.9
2024-07-18 10:10 am 4.3------ AVERAGE 4.9
2024-07-18 09:40 am 4.3------ AVERAGE 4.9
2024-07-18 09:10 am 4.6------ AVERAGE 5.0
2024-07-18 08:40 am 4.3------ AVERAGE 5.2
2024-07-18 08:10 am 3.9------ AVERAGE 5.1
2024-07-18 07:40 am 4.3------ AVERAGE 5.0
2024-07-18 07:10 am 4.3------ AVERAGE 5.1
2024-07-18 06:40 am 3.9------ AVERAGE 5.1
2024-07-18 06:10 am 3.9------ AVERAGE 5.1
2024-07-18 05:40 am 3.9------ AVERAGE 4.8
2024-07-18 05:10 am 3.9------ AVERAGE 4.8
2024-07-18 04:40 am 3.9------ AVERAGE 4.7
2024-07-18 04:10 am 3.6------ STEEP 4.6
2024-07-18 03:40 am 3.6------ STEEP 4.7
2024-07-18 03:10 am 3.6------ AVERAGE 4.7
2024-07-18 02:40 am 3.9------ AVERAGE 5.0
2024-07-18 02:10 am 3.9------ AVERAGE 4.9
2024-07-18 01:40 am 3.9------ AVERAGE 4.9
2024-07-18 01:10 am 3.6------ AVERAGE 4.6

Plot of wave energy versus frequency (and period)